EHI
6 6 6 7 8 9 10 11 11 9 7 7 6 3 1 0 0 1 2 3 3 4 4 4 3 3 3 3 3 4 4 1 0 1 2 1 0 0 0 0 0 0 0
6 5 5 6 7 7 8 8 9 9 9 8 7 4 1 0 0 0 1 2 3 3 4 3 3 3 3 2 3 4 3 1 0 1 1 1 0 0 0 0 0 0 0
5 4 3 4 5 6 6 6 7 8 8 8 7 6 3 1 0 0 0 1 2 3 3 3 3 3 3 1 1 2 1 0 0 0 0 0 0 0 0 0 0 0 0
3 3 2 2 4 6 5 5 6 7 6 6 6 6 5 2 0 0 0 0 1 1 3 3 3 3 3 2 1 0 0 0 0 0 0 0 0 0 0 0 0 0 0
1 1 1 2 3 5 4 4 5 6 5 5 4 5 4 2 0 0 0 0 0 1 2 3 3 3 3 2 1 0 0 0 0 0 0 0 0 0 0 0 0 0 0
1 1 1 2 3 3 2 2 3 4 5 4 3 3 3 2 1 1 0 0 0 1 1 3 3 3 3 3 1 1 0 0 0 0 0 0 0 0 0 0 0 0 0
1 1 1 2 3 1 1 1 2 3 3 3 2 2 2 2 2 2 1 0 0 1 1 2 3 3 3 2 2 2 1 0 0 0 0 0 0 0 0 0 0 0 0
2 1 1 2 3 1 0 1 2 2 2 1 1 1 1 1 1 2 1 1 1 1 1 2 3 3 2 2 3 2 1 0 0 0 0 0 0 0 0 0 0 0 0
3 1 1 2 3 2 0 0 1 2 1 1 0 1 1 0 0 1 1 1 1 2 1 2 3 2 1 2 3 2 1 0 0 0 0 0 0 0 0 0 0 0 0
4 3 1 2 2 1 0 0 0 1 1 0 0 0 0 0 0 0 0 0 1 2 2 3 3 2 1 1 2 2 1 0 0 0 0 0 0 0 0 0 0 0 0
5 3 1 1 1 0 0 0 0 0 0 0 0 0 0 0 0 0 0 0 0 1 2 3 3 2 1 0 1 1 0 0 0 0 0 0 0 0 0 0 0 0 0
3 2 1 0 0 0 0 0 0 0 0 0 0 0 0 0 0 0 0 0 0 0 1 2 2 2 1 0 0 0 0 0 0 0 0 0 0 0 0 0 0 0 0
1 1 1 0 0 0 0 0 0 0 0 0 0 0 0 0 0 0 0 0 0 0 0 1 1 1 0 0 0 0 0 0 0 0 0 0 0 0 0 0 0 0 0
0 0 0 0 0 0 0 0 0 0 0 0 0 0 0 0 0 0 0 0 0 0 0 0 0 0 0 0 0 0 0 0 0 0 0 0 0 0 0 0 0 0 0
0 0 0 0 0 0 0 0 0 0 0 0 0 0 0 0 0 0 0 0 0 0 0 0 0 0 0 0 0 0 0 0 0 0 0 0 0 0 0 0 0 0 0
0 0 0 0 0 0 0 0 0 0 0 0 0 0 0 0 0 0 0 0 0 0 0 0 0 0 0 0 0 0 0 0 0 0 0 0 0 0 0 0 0 0 0
0 0 0 0 0 0 0 0 0 0 0 0 0 0 0 0 0 0 0 0 0 0 0 0 0 0 0 0 0 0 0 0 0 0 0 0 0 0 0 0 0 0 0
0 0 0 0 0 0 0 0 0 0 0 0 0 0 0 0 0 0 0 0 0 0 0 0 0 0 0 0 0 0 0 0 0 0 0 0 0 0 0 0 0 0 0
0 0 0 0 0 0 0 0 0 0 0 0 0 0 0 0 0 0 0 0 0 0 0 0 0 0 1 0 0 0 0 0 0 0 0 0 0 0 0 0 0 0 0
0 0 0 0 0 0 0 0 0 0 0 0 0 0 0 0 0 0 0 0 0 0 0 0 0 0 0 0 0 0 0 0 0 0 0 0 0 0 0 0 0 0 0
0 0 0 0 0 0 0 0 0 0 0 0 0 0 0 0 0 0 0 0 0 0 0 0 0 0 0 0 0 0 0 0 0 0 0 0 0 0 0 0 0 0 0
0 0 0 0 0 0 0 0 0 0 0 0 0 0 0 0 0 0 0 0 0 0 0 0 0 0 0 0 0 0 0 0 0 0 0 0 0 0 0 0 0 0 0
0 0 0 0 0 0 0 0 0 0 0 0 0 0 0 0 0 0 0 0 0 0 0 0 0 0 0 0 0 0 0 0 0 0 0 0 0 0 0 0 0 0 0
0 0 0 0 0 0 0 0 0 0 0 0 0 0 0 0 0 0 0 0 0 0 0 0 0 0 0 0 0 0 0 0 0 0 0 0 0 0 0 0 0 0 0
0 0 0 0 0 0 0 0 0 0 0 0 0 0 0 0 0 0 0 0 0 0 0 0 0 0 0 0 0 0 0 0 0 0 0 0 0 0 0 0 0 0 0
0 0 0 0 0 0 0 0 0 0 0 0 0 0 0 0 0 0 0 0 0 0 0 0 0 0 0 0 0 0 0 0 0 0 0 0 0 0 0 0 0 0 0
Wind_Speed
5 5 6 6 7 7 7 7 7 6 6 6 6 7 7 7 7 7 7 8 8 8 8 8 7 8 8 8 9 9 9 9 10 10 10 9 9 9 9 8 8 7 10
5 6 7 7 7 7 7 7 6 6 6 5 6 6 6 7 6 6 7 7 7 7 7 7 7 8 8 8 8 8 8 8 8 8 8 7 7 8 8 8 9 6 9
6 6 6 7 8 7 7 7 7 6 6 6 6 6 5 6 5 6 6 6 6 6 6 7 7 7 8 8 7 7 7 6 6 6 5 3 4 7 7 8 8 8 7
6 6 6 7 7 7 7 7 7 7 6 6 5 5 5 5 5 5 5 5 5 5 6 6 6 7 7 7 7 6 5 4 4 2 2 3 3 6 7 6 6 6 6
6 7 7 8 7 7 7 7 7 7 7 6 5 5 5 5 5 4 4 4 5 5 5 5 6 6 6 6 6 5 4 3 3 2 2 3 3 5 6 6 5 5 5
7 6 6 7 7 7 7 6 6 6 6 6 5 5 5 4 4 4 4 4 4 4 4 5 5 5 5 5 4 4 3 3 3 1 2 3 3 5 5 5 4 4 3
6 5 6 7 7 7 7 6 6 6 6 5 4 5 5 4 4 4 4 3 3 4 3 3 4 4 4 4 3 2 2 4 2 1 2 2 3 4 4 3 3 2 2
6 5 5 6 7 7 6 6 5 5 5 5 4 4 4 4 4 3 3 3 3 3 3 3 3 3 3 3 2 2 2 3 2 1 2 2 3 3 3 2 2 1 1
6 5 4 4 5 6 6 6 6 4 4 4 4 4 4 4 3 2 3 3 2 2 2 1 2 2 2 2 2 1 2 3 2 1 1 2 3 2 1 1 0 1 1
5 5 4 4 4 3 3 5 5 4 3 3 3 3 3 4 3 3 2 2 2 1 1 1 1 1 2 2 1 1 2 3 2 1 1 2 2 1 1 0 1 1 0
4 4 4 4 3 2 2 3 3 3 2 2 2 2 2 1 1 1 1 2 2 1 1 0 1 1 1 1 1 1 1 1 1 0 1 1 2 1 1 1 1 0 1
3 3 3 3 3 2 2 1 1 1 1 0 0 1 0 0 0 1 1 1 1 1 1 1 2 1 1 1 1 1 1 2 1 0 0 1 2 3 3 2 2 2 2
2 2 2 2 2 2 1 1 1 1 1 1 1 1 0 0 0 0 0 0 0 0 0 1 1 1 1 1 1 2 2 1 1 0 0 2 2 3 4 3 3 3 3
2 2 2 2 2 1 1 1 1 1 1 1 1 2 1 0 0 0 0 0 0 0 1 1 1 1 1 1 2 2 2 1 1 0 1 2 2 3 4 4 4 4 4
2 2 1 1 1 1 1 1 1 1 1 1 1 1 1 1 0 0 0 0 0 0 1 1 1 1 1 1 2 2 2 2 1 1 1 2 2 3 4 5 5 5 4
2 2 1 1 1 1 1 1 1 1 1 1 1 1 1 1 1 0 0 0 1 1 1 1 1 2 2 2 2 2 2 2 2 1 1 2 2 3 5 5 5 5 5
2 2 1 1 1 1 1 1 0 0 0 0 1 1 1 1 1 1 1 1 1 1 1 2 2 1 1 1 2 2 2 2 2 2 2 2 2 3 4 5 5 5 5
2 2 1 1 1 0 0 1 1 1 1 1 1 1 1 1 1 1 1 1 1 1 1 1 1 1 1 1 1 2 2 2 2 2 1 2 2 1 2 4 5 6 6
2 3 2 1 1 0 0 1 1 1 1 1 1 1 1 1 1 1 1 1 1 1 1 2 1 1 1 1 2 2 2 2 3 2 2 1 2 2 2 3 4 6 7
1 2 2 1 1 0 0 1 1 1 1 1 1 1 1 1 2 1 1 2 1 1 1 1 1 1 1 1 2 2 2 3 2 2 2 1 1 2 2 2 3 4 6
1 1 1 1 1 1 0 0 1 1 1 1 1 1 2 2 2 2 2 2 2 2 2 2 1 1 1 1 1 2 2 2 2 1 1 1 2 2 2 2 2 2 2
1 0 1 1 1 1 1 1 1 1 1 2 2 2 2 2 2 2 2 2 2 2 2 2 1 1 1 1 0 0 1 2 1 2 1 2 2 1 2 2 2 2 2
1 1 1 1 1 1 1 1 1 1 1 1 2 2 3 3 3 3 3 3 3 2 3 3 3 2 2 2 1 1 1 2 2 2 3 2 2 2 2 2 2 2 2
1 1 1 1 1 1 1 1 2 2 2 3 2 2 3 3 3 3 3 4 3 3 3 3 3 3 2 2 2 2 2 1 1 2 2 2 2 3 2 2 2 2 2
1 0 1 1 1 1 1 2 2 3 3 2 2 3 3 3 3 3 3 3 3 3 3 3 3 3 2 3 2 2 2 2 2 2 3 3 2 3 3 3 2 2 3
1 0 1 1 2 1 2 2 3 3 3 3 3 3 3 2 2 3 3 2 3 3 4 3 3 4 4 3 2 2 2 2 2 2 3 3 3 3 3 2 2 2 2
Wind_Direction
75 81 67 63 78 84 84 83 81 82 82 89 90 87 87 87 87 82 79 76 73 71 72 76 80 79 77 76 72 73 72 73 77 79 77 78 80 83 82 76 75 74 77
93 92 74 68 75 79 78 79 78 77 81 87 90 89 91 90 89 86 84 82 80 76 76 81 81 80 78 79 77 76 74 76 79 81 78 75 79 84 83 75 78 82 79
86 91 81 71 72 76 75 74 73 78 81 88 90 89 94 94 92 91 87 86 82 77 75 80 84 83 79 77 75 77 78 79 83 84 81 79 82 88 86 79 84 85 83
91 90 81 72 71 72 75 75 72 72 78 84 91 93 94 97 100 99 94 90 84 78 76 77 81 84 81 79 75 74 75 76 77 70 84 91 84 86 88 86 86 85 85
86 85 80 70 68 71 75 75 72 71 71 73 79 91 94 89 95 102 100 93 87 80 76 75 81 86 83 81 76 71 64 49 18 357 62 82 80 88 85 86 85 86 86
84 87 85 73 69 69 72 75 75 72 70 70 68 73 80 83 81 86 89 89 87 83 80 80 85 90 89 85 79 68 46 15 347 2 56 79 87 90 85 83 82 87 93
78 84 96 79 72 68 67 72 77 75 72 69 69 69 66 68 71 73 79 89 93 90 90 94 97 102 101 96 88 68 19 348 349 17 62 74 91 96 90 85 79 82 93
80 79 93 80 75 68 64 62 65 76 76 73 69 66 61 56 60 74 79 80 93 102 101 102 105 117 116 111 96 56 354 338 340 9 74 82 100 102 93 81 68 63 85
79 83 87 86 79 71 62 57 54 62 75 75 70 65 61 56 51 67 83 74 76 96 110 118 122 128 130 127 110 18 330 325 317 314 82 92 105 110 108 92 13 359 31
72 75 75 74 72 66 67 60 49 47 58 71 66 58 60 65 55 53 71 72 67 64 93 131 152 166 161 153 155 299 313 314 300 327 61 96 119 143 181 208 278 301 106
71 69 69 63 59 57 62 58 49 43 44 75 82 50 47 67 88 80 76 64 63 63 42 257 225 202 170 182 216 269 290 274 281 5 65 104 155 202 225 230 224 207 265
72 62 64 58 46 39 48 61 37 30 5 2 113 100 73 18 11 62 94 71 26 11 357 306 262 224 185 190 227 236 243 266 274 353 68 148 206 225 230 226 224 241 262
99 72 61 69 50 34 22 46 25 8 0 3 16 19 17 353 348 39 123 159 242 321 311 319 275 216 215 199 199 221 244 258 268 277 136 181 226 227 229 233 236 245 257
100 83 56 65 66 40 21 15 19 18 4 19 13 6 360 316 301 304 144 257 205 255 274 256 245 216 243 232 224 231 241 242 237 200 177 194 245 247 245 243 242 249 256
109 109 88 61 67 48 34 351 19 18 7 2 352 335 342 324 307 310 270 30 287 277 264 260 249 232 228 230 241 248 248 241 234 202 168 204 239 252 257 254 247 252 258
113 112 110 89 67 48 30 5 14 355 332 330 335 320 332 341 319 296 299 254 287 262 255 252 260 250 230 232 244 248 253 259 247 213 172 205 245 250 255 256 255 259 262
151 138 128 120 83 57 14 337 353 283 306 297 296 307 318 330 320 300 270 254 253 263 258 243 245 257 252 247 250 260 252 251 262 235 187 184 217 248 261 259 262 263 261
146 139 134 110 75 37 343 287 262 240 264 267 278 296 297 305 308 305 270 253 267 264 263 244 221 247 256 256 263 267 266 253 252 250 219 186 180 199 244 268 272 271 268
149 148 144 136 145 41 304 278 263 220 241 259 254 273 292 297 301 288 279 270 272 266 271 268 237 218 256 262 267 265 259 254 239 243 239 201 177 189 197 245 268 273 274
99 133 137 142 150 198 246 284 293 264 244 248 241 232 262 278 287 285 269 282 269 257 267 270 261 238 253 257 283 283 269 257 234 210 233 231 201 206 200 221 236 258 269
95 101 150 167 178 176 223 264 260 271 272 268 241 237 233 242 252 250 266 279 264 240 244 256 269 256 254 262 323 308 289 262 235 203 215 240 228 222 214 223 218 229 255
146 173 184 193 197 195 212 244 238 250 258 268 268 251 243 234 237 242 236 250 257 249 251 251 248 244 254 208 185 304 292 292 291 276 236 238 242 244 238 241 225 230 236
183 216 248 227 214 207 209 243 277 280 275 271 271 254 252 245 238 238 239 240 245 240 242 243 231 229 239 244 195 186 212 242 290 258 239 232 241 255 249 243 239 238 244
221 219 244 233 223 212 204 227 238 249 252 255 259 253 252 245 238 236 235 237 244 242 241 250 245 236 220 231 237 229 228 232 229 268 275 250 247 257 258 270 258 250 245
72 24 253 251 269 244 235 229 242 254 261 264 264 264 264 255 241 237 235 234 238 244 241 243 253 241 231 229 230 248 258 265 244 242 271 273 269 254 254 253 246 242 244
78 20 300 266 271 264 250 247 243 250 256 263 266 268 267 261 250 245 241 237 238 239 237 237 244 243 235 235 235 234 237 234 240 242 265 281 275 265 258 254 248 245 247